This demonstration page uses our WeatherBlox Daily Observations layout. Learn more.

Left ArrowRight Arrow

Hourly Observations for November 27, 2022

Temp ( °F °C ) Dew Point ( °F °C ) Humidity (%) Winds ( mph kmh ) Pressure ( in mb ) Visibility ( mi km ) Precip ( " mm )
12:15 am 00:15 Clear 35 1.5 25 -3.8 68 68 N 21 33 29.91 1013 10 16 0.00 0.00
12:35 am 00:35 Clear 34 1.1 25 -4 69 69 N 23 37 29.91 1013 10 16 0.00 0.00
12:55 am 00:55 Clear 33 0.6 25 -3.9 72 72 N 21 33 29.92 1013 10 16 0.00 0.00
1:15 am 01:15 Clear 33 0.5 25 -3.8 73 73 N 22 35 29.92 1013 10 16 0.00 0.00
1:35 am 01:35 Clear 32 0.1 25 -3.8 75 75 N 23 37 29.92 1013 10 16 0.00 0.00
1:55 am 01:55 Clear 32 0 25 -3.7 76 76 N 21 33 29.92 1013 10 16 0.00 0.00
2:15 am 02:15 Clear 32 -0.2 25 -3.8 77 77 N 20 31 29.94 1014 10 16 0.00 0.00
2:35 am 02:35 Clear 31 -0.4 25 -3.8 78 78 N 21 33 29.94 1014 10 16 0.00 0.00
2:55 am 02:55 Clear 31 -0.3 25 -3.7 78 78 N 18 30 29.95 1014 10 16 0.00 0.00
3:15 am 03:15 Clear 32 0 26 -3.5 77 77 N 20 31 29.94 1014 10 16 0.00 0.00
3:35 am 03:35 Clear 33 0.5 26 -3.5 74 74 N 18 30 29.94 1014 10 16 0.00 0.00
3:55 am 03:55 Clear 33 0.7 26 -3.6 73 73 N 20 31 29.95 1014 10 16 0.00 0.00
4:15 am 04:15 Clear 34 0.9 26 -3.6 72 72 N 20 31 29.94 1014 10 16 0.00 0.00
4:35 am 04:35 Clear 34 1 25 -4 69 69 N 20 31 29.95 1014 10 16 0.00 0.00
4:55 am 04:55 Clear 33 0.7 25 -4.1 70 70 N 18 30 29.95 1014 10 16 0.00 0.00
5:15 am 05:15 Clear 32 0.2 24 -4.2 72 72 NNW 17 28 29.96 1015 10 16 0.00 0.00
5:35 am 05:35 Partly Cloudy 32 0.1 24 -4.3 72 72 NNW 18 30 29.98 1015 10 16 0.00 0.00
5:55 am 05:55 Mostly Cloudy 32 0.2 24 -4.2 72 72 N 20 31 29.98 1015 10 16 0.00 0.00
6:15 am 06:15 Cloudy 32 0.2 24 -4.3 72 72 N 22 35 29.98 1015 10 16 0.00 0.00
6:35 am 06:35 Mostly Cloudy 32 0 24 -4.3 73 73 N 21 33 29.99 1016 10 16 0.00 0.00
6:55 am 06:55 Cloudy 32 0 24 -4.3 73 73 N 14 22 30.01 1016 10 16 0.00 0.00
7:15 am 07:15 Cloudy 32 0 24 -4.2 73 73 NNW 10 17 30.02 1017 10 16 0.00 0.00
7:35 am 07:35 Cloudy 32 0 24 -4.3 73 73 NNW 10 17 30.02 1017 10 16 0.00 0.00
7:55 am 07:55 Cloudy 32 0 24 -4.3 73 73 NNW 14 22 30.04 1017 10 16 0.00 0.00
8:15 am 08:15 Cloudy 32 0 24 -4.4 72 72 N 12 19 30.04 1017 10 16 0.00 0.00
8:35 am 08:35 Partly Cloudy 32 -0.2 24 -4.5 73 73 N 12 19 30.05 1017 10 16 0.00 0.00
8:55 am 08:55 Sunny 32 -0.1 24 -4.4 73 73 NNW 14 22 30.07 1018 10 16 0.00 0.00
9:15 am 09:15 Sunny 32 0 24 -4.3 73 73 NNW 14 22 30.07 1018 10 16 0.00 0.00
9:35 am 09:35 Sunny 32 0.2 24 -4.2 72 72 N 9 15 30.06 1018 10 16 0.00 0.00
9:55 am 09:55 Sunny 33 0.6 24 -4.2 70 70 NNW 15 24 30.06 1018 10 16 0.00 0.00
10:15 am 10:15 Sunny 34 1.2 24 -4.2 67 67 NNW 14 22 30.05 1018 10 16 0.00 0.00
10:35 am 10:35 Sunny 34 1 24 -4.5 67 67 NNW 8 13 30.06 1018 10 16 0.00 0.00
10:55 am 10:55 Sunny 34 1.3 24 -4.4 66 66 NW 9 15 30.05 1018 10 16 0.00 0.00
11:15 am 11:15 Sunny 36 2.4 24 -4.4 61 61 N 10 17 30.03 1017 10 16 0.00 0.00
11:35 am 11:35 Sunny 37 2.8 24 -4.7 58 58 N 9 15 30.02 1017 10 16 0.00 0.00
11:55 am 11:55 Sunny 37 3 23 -4.9 56 56 NNW 12 19 30.01 1016 10 16 0.00 0.00
12:15 pm 12:15 Sunny 39 3.9 22 -5.6 50 50 NNW 9 15 29.99 1015 10 16 0.00 0.00
12:35 pm 12:35 Sunny 39 3.7 22 -5.6 51 51 NW 10 17 29.99 1016 10 16 0.00 0.00
12:55 pm 12:55 Sunny 39 3.7 22 -5.8 50 50 NNW 7 11 29.98 1015 10 16 0.00 0.00
1:15 pm 13:15 Sunny 39 3.8 22 -5.6 50 50 W 5 7 29.97 1015 10 16 0.00 0.00
1:35 pm 13:35 Sunny 39 3.9 22 -5.6 50 50 WNW 7 11 29.96 1014 10 16 0.00 0.00
1:55 pm 13:55 Sunny 41 4.9 21 -6.1 45 45 WNW 7 11 29.95 1014 10 16 0.00 0.00
2:15 pm 14:15 Sunny 41 4.8 20 -6.5 44 44 NW 3 6 29.94 1014 10 16 0.00 0.00
2:35 pm 14:35 Sunny 41 5 20 -6.7 42 42 NW 5 7 29.93 1013 10 16 0.00 0.00
2:55 pm 14:55 Sunny 40 4.7 20 -6.7 43 43 NW 5 7 29.93 1014 10 16 0.00 0.00
3:15 pm 15:15 Sunny 41 5 19 -7 41 41 WNW 5 7 29.92 1013 10 16 0.00 0.00
3:35 pm 15:35 Sunny 42 5.5 19 -7.2 39 39 Calm 29.90 1013 10 16 0.00 0.00
3:55 pm 15:55 Sunny 42 5.7 19 -7.2 39 39 W 3 6 29.89 1012 10 16 0.00 0.00
4:15 pm 16:15 Sunny 42 5.7 18 -8 37 37 W 5 7 29.89 1012 10 16 0.00 0.00
4:35 pm 16:35 Sunny 42 5.6 18 -7.8 37 37 SW 3 6 29.89 1012 10 16 0.00 0.00
4:55 pm 16:55 Sunny 40 4.5 19 -7.5 41 41 SW 5 7 29.89 1012 10 16 0.00 0.00
5:15 pm 17:15 Clear 37 2.8 18 -7.8 45 45 SW 5 7 29.91 1013 10 16 0.00 0.00
5:35 pm 17:35 Clear 34 1.3 18 -8 50 50 SSW 6 9 29.92 1013 10 16 0.00 0.00
5:55 pm 17:55 Clear 32 0.1 17 -8.5 52 52 S 6 9 29.92 1013 10 16 0.00 0.00
6:15 pm 18:15 Clear 31 -0.6 16 -8.9 53 53 S 6 9 29.94 1014 10 16 0.00 0.00
6:35 pm 18:35 Clear 30 -1 16 -9 54 54 S 8 13 29.94 1014 10 16 0.00 0.00
6:55 pm 18:55 Clear 29 -1.8 15 -9.2 57 57 S 9 15 29.94 1014 10 16 0.00 0.00
7:15 pm 19:15 Clear 28 -2.5 15 -9.3 59 59 S 8 13 29.95 1014 10 16 0.00 0.00
7:35 pm 19:35 Clear 26 -3.1 15 -9.3 62 62 S 9 15 29.94 1014 10 16 0.00 0.00
7:55 pm 19:55 Clear 29 -1.5 17 -8.2 60 60 S 9 15 29.92 1013 10 16 0.00 0.00
8:15 pm 20:15 Clear 29 -1.7 17 -8.3 61 61 S 8 13 29.92 1013 10 16 0.00 0.00
8:35 pm 20:35 Clear 27 -2.7 17 -8.6 64 64 S 9 15 29.94 1014 10 16 0.00 0.00
8:55 pm 20:55 Clear 29 -1.6 18 -8 62 62 S 12 19 29.92 1013 10 16 0.00 0.00
9:15 pm 21:15 Clear 29 -1.8 17 -8.2 62 62 S 12 19 29.92 1013 10 16 0.00 0.00
9:35 pm 21:35 Clear 28 -2.2 17 -8.6 61 61 S 10 17 29.91 1013 10 16 0.00 0.00
9:55 pm 21:55 Clear 28 -2.4 17 -8.5 63 63 S 12 19 29.91 1013 10 16 0.00 0.00
10:15 pm 22:15 Clear 29 -1.7 17 -8.1 62 62 S 12 19 29.88 1012 10 16 0.00 0.00
10:35 pm 22:35 Clear 29 -1.7 17 -8.1 62 62 S 13 20 29.88 1012 10 16 0.00 0.00
10:55 pm 22:55 Clear 29 -1.7 17 -8.1 62 62 S 10 17 29.88 1012 10 16 0.00 0.00
11:15 pm 23:15 Clear 28 -2.3 18 -8 65 65 S 9 15 29.89 1012 10 16 0.00 0.00
11:35 pm 23:35 Clear 27 -2.9 17 -8.5 65 65 S 8 13 29.88 1012 10 16 0.00 0.00
11:55 pm 23:55 Clear 27 -2.7 17 -8.2 66 66 S 9 15 29.88 1012 10 16 0.00 0.00

Powered by AerisWeather